FW9176 Weather Reports


Display with metric or nautical units.
time (UTC)temp
F
wind
direction
speed
MPH
gust
MPH
rain 1hr
in
rain 24hr
in
rain mn
in
humidity
%
barometer
mb
20260906093100 72 0 0.0 0.0 0.00 0.00 0.00 81 1014.7
20260906091606 72 0 0.0 0.0 0.00 0.00 0.00 81 1014.9
20260906090100 72 0 0.0 0.0 0.00 0.00 0.00 81 1014.7
20260906084602 72 0 0.0 0.0 0.00 0.00 0.00 80 1014.7
20260906083105 72 0 0.0 0.0 0.00 0.00 0.00 80 1014.6
20260906081603 72 0 0.0 0.0 0.00 0.00 0.00 80 1014.6
20260906074605 73 0 0.0 0.0 0.00 0.00 0.00 79 1015.0
20260906073059 73 0 0.0 0.0 0.00 0.00 0.00 79 1015.0
20260906071604 73 0 0.0 1.0 0.00 0.00 0.00 79 1014.9
20260906070101 73 0 0.0 1.0 0.00 0.00 0.00 81 1014.9
20260906064558 73 0 0.0 1.0 0.00 0.00 0.00 81 1014.6
20260906063104 73 0 0.0 1.0 0.00 0.00 0.00 81 1014.9
20260906061559 73 0 0.0 1.0 0.00 0.00 0.00 82 1014.9
20260906060104 73 0 0.0 1.0 0.00 0.00 0.00 82 1014.9
20260906054605 73 0 0.0 1.0 0.00 0.00 0.00 81 1014.9
20260906053108 73 0 0.0 1.0 0.00 0.00 0.00 81 1014.7
20260906051605 73 0 0.0 1.0 0.00 0.00 0.00 81 1014.4
20260906050108 73 0 0.0 1.0 0.00 0.00 0.00 81 1014.3
20260906044600 73 0 0.0 1.0 0.00 0.00 0.00 81 1014.3
20260906043107 73 50 0.0 1.0 0.00 0.00 0.00 81 1014.0
20260906041603 73 0 0.0 1.0 0.00 0.00 0.00 81 1013.9
20260906040110 73 0 0.0 2.0 0.00 0.00 0.00 81 1013.9
20260906034607 73 0 0.0 2.0 0.00 0.00 0.00 81 1013.8
20260906033112 73 72 0.0 2.0 0.00 0.00 0.00 80 1013.8
20260906031600 73 0 0.0 3.0 0.00 0.00 0.00 80 1014.0
20260906030100 73 0 0.0 3.0 0.00 0.00 0.00 80 1013.9
20260906024557 73 0 0.0 2.0 0.00 0.00 0.00 79 1013.8
20260906023102 73 58 0.0 3.0 0.00 0.00 0.00 79 1013.8
20260906021606 73 60 0.0 5.0 0.00 0.00 0.00 79 1013.7
20260906020109 73 0 1.0 2.0 0.00 0.00 0.00 79 1013.9
20260906014602 73 46 1.0 3.0 0.00 0.00 0.00 80 1014.0
20260906013110 73 0 0.0 1.0 0.00 0.00 0.00 80 1013.9
20260906011605 73 0 0.0 3.0 0.00 0.00 0.00 80 1013.9
20260906010100 73 0 0.0 4.0 0.00 0.00 0.00 81 1013.8
20260906004611 72 0 0.0 6.0 0.00 0.00 0.00 81 1013.6
20260906003107 72 68 1.0 5.0 0.00 0.00 0.00 80 1013.7
20260906001607 73 20 0.0 3.0 0.00 0.00 0.00 80 1013.7
20260906000109 73 250 0.0 2.0 0.00 0.00 0.00 80 1013.6
20260905234602 73 340 0.0 4.0 0.00 0.00 0.00 79 1013.5
20260905233100 74 62 0.0 5.0 0.00 0.00 0.00 79 1013.3
20260905231556 75 285 0.0 6.0 0.00 0.00 0.00 77 1013.0
20260905224558 77 0 0.0 3.0 0.00 0.00 0.00 75 1012.9
20260905223058 78 61 0.0 3.0 0.00 0.00 0.00 73 1012.9
20260905221605 79 63 1.0 3.0 0.00 0.00 0.00 72 1012.9
20260905214555 80 35 0.0 2.0 0.00 0.00 0.00 70 1012.9
20260905213108 79 65 0.0 2.0 0.00 0.00 0.00 70 1012.6
20260905211601 79 0 0.0 2.0 0.00 0.00 0.00 70 1012.4
20260905210123 79 0 0.0 2.0 0.00 0.00 0.00 72 1012.6
20260905204604 79 29 0.0 1.0 0.00 0.00 0.00 72 1013.0
20260905203101 79 0 0.0 3.0 0.00 0.00 0.00 71 1012.7
20260905201558 79 0 1.0 2.0 0.00 0.00 0.00 72 1012.8
20260905200107 79 46 0.0 3.0 0.00 0.00 0.00 72 1012.9
20260905194608 79 0 0.0 4.0 0.00 0.00 0.00 73 1012.9
20260905193102 79 48 0.0 4.0 0.00 0.00 0.00 72 1013.1
20260905191608 80 77 0.0 2.0 0.00 0.00 0.00 72 1013.1
20260905190100 80 0 0.0 3.0 0.00 0.00 0.00 72 1013.2
20260905184624 80 338 0.0 5.0 0.00 0.00 0.00 72 1013.0
20260905183109 81 274 0.0 4.0 0.00 0.00 0.00 71 1013.1
20260905181601 81 335 0.0 5.0 0.00 0.00 0.00 71 1013.1
20260905180104 81 0 0.0 2.0 0.00 0.00 0.00 70 1012.8
20260905174600 82 0 1.0 2.0 0.00 0.00 0.00 70 1012.9
20260905173109 81 30 0.0 3.0 0.00 0.00 0.00 71 1012.9
20260905171624 82 51 0.0 3.0 0.00 0.00 0.00 69 1013.0
20260905170101 83 324 1.0 3.0 0.00 0.00 0.00 69 1013.1
20260905164605 82 0 0.0 2.0 0.00 0.00 0.00 69 1013.2
20260905163110 83 0 0.0 1.0 0.00 0.00 0.00 70 1013.1
20260905161600 82 51 0.0 4.0 0.00 0.00 0.00 70 1013.2
20260905160100 82 0 0.0 3.0 0.00 0.00 0.00 71 1012.9
20260905154613 82 39 0.0 3.0 0.00 0.00 0.00 70 1012.8
20260905153113 81 70 0.0 2.0 0.00 0.00 0.00 72 1012.7
20260905151614 80 58 0.0 3.0 0.00 0.00 0.00 74 1012.6
20260905150107 79 33 0.0 4.0 0.00 0.00 0.00 74 1012.5
20260905144603 79 12 1.0 4.0 0.00 0.00 0.00 76 1012.4
20260905143104 79 0 0.0 2.0 0.00 0.00 0.00 77 1012.3
20260905141557 78 20 0.0 1.0 0.00 0.00 0.00 79 1012.2
20260905140100 77 0 0.0 2.0 0.00 0.00 0.00 83 1012.1
20260905134558 76 0 0.0 2.0 0.00 0.00 0.00 85 1011.9
20260905133101 75 316 0.0 2.0 0.00 0.00 0.00 86 1012.3
20260905131607 75 0 0.0 1.0 0.00 0.00 0.00 86 1012.1
20260905124601 74 14 0.0 1.0 0.00 0.00 0.00 86 1011.8
20260905123059 75 0 0.0 0.0 0.00 0.00 0.00 86 1011.4
20260905121602 75 0 0.0 0.0 0.00 0.00 0.00 86 1011.4
20260905114602 76 0 0.0 0.0 0.00 0.00 0.00 85 1010.7
20260905113058 76 0 0.0 0.0 0.00 0.00 0.00 85 1010.5
20260905111646 77 0 0.0 0.0 0.00 0.00 0.00 85 1010.2
20260905110057 77 0 0.0 0.0 0.00 0.00 0.00 84 1010.2
20260905104607 78 0 0.0 0.0 0.00 0.00 0.00 84 1010.2
20260905103107 78 0 0.0 0.0 0.00 0.00 0.00 83 1010.1
20260905101607 78 0 0.0 0.0 0.00 0.00 0.00 83 1010.1
20260905094556 78 0 0.0 0.0 0.00 0.00 0.00 83 1010.0